This demonstration page uses our WeatherBlox Daily Observations layout. Learn more.

Left ArrowRight Arrow

34.74481, -87.66753

Hourly Observations for December 19, 2018

Temp ( °F °C ) Dew Point ( °F °C ) Humidity (%) Winds ( mph kmh ) Pressure ( in mb ) Visibility ( mi km ) Precip ( " mm )
12:53 am 00:53 Clear 39 3.9 35 1.7 86 86 Calm 30.07 1018 10 16 0.00 0.00
1:53 am 01:53 Clear 38 3.3 33 0.6 83 83 Calm 30.07 1018 10 16 0.00 0.00
2:53 am 02:53 Clear 36 2.2 32 0 86 86 Calm 30.07 1018 10 16 0.00 0.00
3:53 am 03:53 Clear 35 1.7 32 0 89 89 Calm 30.07 1018 10 16 0.00 0.00
4:53 am 04:53 Clear 35 1.7 31 -0.6 85 85 E 3 6 30.06 1018 10 16 0.00 0.00
5:53 am 05:53 Clear 35 1.7 33 0.6 93 93 E 3 6 30.06 1018 10 16 0.00 0.00
6:53 am 06:53 Sunny with Light Rain 35 1.7 31 -0.6 85 85 ESE 3 6 30.07 1018 10 16 0.00 0.03
7:53 am 07:53 Sunny 37 2.8 34 1.1 89 89 ESE 3 6 30.06 1018 10 16 0.00 0.03
8:53 am 08:53 Sunny 43 6.1 35 1.7 74 74 E 6 9 30.05 1018 10 16 0.00 0.00
9:53 am 09:53 Sunny 48 8.9 36 2.2 63 63 SE 5 7 30.06 1018 10 16 0.00 0.00
10:53 am 10:53 undefined N/A N/A N/A undefined N/A N/A N/A 0.00 0.00
11:53 am 11:53 Sunny 57 13.9 37 2.8 47 47 SSW 6 9 29.98 1015 10 16 0.00 0.00
12:53 pm 12:53 undefined 58 14.4 36 2.2 44 44 undefined N/A 29.95 1014 N/A 0.00 0.00
1:53 pm 13:53 Sunny 59 15 36 2.2 42 42 SSW 3 6 29.92 1013 10 16 0.00 0.00
2:53 pm 14:53 Sunny 58 14.4 38 3.3 48 48 Calm 29.91 1013 10 16 0.00 0.00
3:53 pm 15:53 Sunny 55 12.8 39 3.9 55 55 SE 5 7 29.91 1013 10 16 0.00 0.00
4:53 pm 16:53 Clear 53 11.7 39 3.9 59 59 ESE 7 11 29.91 1013 10 16 0.00 0.00
5:53 pm 17:53 Clear 52 11.1 38 3.3 59 59 SE 6 9 29.90 1012 10 16 0.00 0.00
6:53 pm 18:53 Cloudy 51 10.6 39 3.9 64 64 SSE 5 7 29.91 1013 10 16 0.00 0.00
8:53 pm 20:53 Cloudy with Rain 50 10 42 5.6 74 74 SE 6 9 29.90 1012 8 13 0.05 1.27
9:53 pm 21:53 Cloudy 49 9.4 44 6.7 83 83 E 8 13 29.85 1011 10 16 0.01 0.25
10:53 pm 22:53 Mostly Cloudy 49 9.4 44 6.7 83 83 ESE 10 17 29.83 1010 10 16 0.00 0.03
11:53 pm 23:53 Cloudy with Light Rain 51 10.6 45 7.2 80 80 SE 10 17 29.76 1008 10 16 0.00 0.03

Powered by AerisWeather